CW8504 Weather Reports


time (UTC)temp
C
wind
direction
speed
KPH
gust
KPH
rain 1hr
cm
rain 24hr
cm
rain mn
cm
humidity
%
barometer
mb
20260831213904 26 210 0.0 4.8 0.00 0.00 0.00 11 1018.7
20260831213404 26 226 8.0 14.5 0.00 0.00 0.00 12 1018.7
20260831212904 26 223 1.6 11.3 0.00 0.00 0.00 10 1018.7
20260831212404 26 228 4.8 12.9 0.00 0.00 0.00 11 1018.8
20260831211904 26 220 1.6 8.0 0.00 0.00 0.00 9 1018.8
20260831210904 26 228 3.2 9.7 0.00 0.00 0.00 10 1019.0
20260831210404 26 240 4.8 16.1 0.00 0.00 0.00 9 1019.1
20260831205904 26 228 6.4 16.1 0.00 0.00 0.00 11 1019.2
20260831204904 26 235 4.8 16.1 0.00 0.00 0.00 10 1019.3
20260831204404 26 221 6.4 11.3 0.00 0.00 0.00 10 1019.3
20260831203904 26 222 4.8 9.7 0.00 0.00 0.00 11 1019.4
20260831202904 25 225 0.0 8.0 0.00 0.00 0.00 11 1019.5
20260831202404 25 225 1.6 14.5 0.00 0.00 0.00 12 1019.7
20260831201904 25 38 0.0 3.2 0.00 0.00 0.00 10 1019.7
20260831201404 25 37 3.2 8.0 0.00 0.00 0.00 11 1019.8
20260831200904 25 51 1.6 4.8 0.00 0.00 0.00 14 1019.8
20260831195904 24 37 1.6 4.8 0.00 0.00 0.00 11 1019.9
20260831195404 24 40 1.6 4.8 0.00 0.00 0.00 12 1019.9
20260831194904 24 115 1.6 9.7 0.00 0.00 0.00 14 1020.0
20260831194404 24 34 3.2 12.9 0.00 0.00 0.00 12 1020.2
20260831193904 24 22 1.6 3.2 0.00 0.00 0.00 12 1020.2
20260831193404 24 145 1.6 4.8 0.00 0.00 0.00 15 1020.2
20260831192404 23 119 3.2 9.7 0.00 0.00 0.00 15 1020.4
20260831191904 23 40 0.0 9.7 0.00 0.00 0.00 16 1020.5
20260831191404 23 30 1.6 8.0 0.00 0.00 0.00 14 1020.6
20260831190904 23 38 0.0 4.8 0.00 0.00 0.00 15 1020.7
20260831185904 22 39 0.0 3.2 0.00 0.00 0.00 15 1020.9
20260831185404 22 39 1.6 4.8 0.00 0.00 0.00 15 1020.9
20260831184904 22 38 1.6 4.8 0.00 0.00 0.00 17 1021.0
20260831184404 22 37 1.6 4.8 0.00 0.00 0.00 16 1021.0
20260831183904 22 35 0.0 9.7 0.00 0.00 0.00 15 1021.1
20260831183404 22 34 1.6 8.0 0.00 0.00 0.00 17 1021.3
20260831182904 22 31 0.0 3.2 0.00 0.00 0.00 16 1021.4
20260831182404 21 31 1.6 3.2 0.00 0.00 0.00 17 1021.4
20260831181404 21 31 0.0 3.2 0.00 0.00 0.00 18 1021.5
20260831180404 21 31 1.6 8.0 0.00 0.00 0.00 16 1021.7
20260831175904 20 31 1.6 4.8 0.00 0.00 0.00 18 1021.7
20260831175404 20 30 1.6 8.0 0.00 0.00 0.00 20 1021.7
20260831174904 19 31 1.6 4.8 0.00 0.00 0.00 22 1021.8
20260831174404 18 28 0.0 1.6 0.00 0.00 0.00 28 1021.8
20260831173404 17 340 0.0 3.2 0.00 0.00 0.00 30 1021.9
20260831172904 17 355 1.6 3.2 0.00 0.00 0.00 27 1022.0
20260831172404 17 284 0.0 0.0 0.00 0.00 0.00 29 1022.1
20260831171905 17 300 0.0 0.0 0.00 0.00 0.00 28 1022.2
20260831171404 16 300 0.0 0.0 0.00 0.00 0.00 31 1022.2
20260831170404 16 299 0.0 0.0 0.00 0.00 0.00 32 1022.2
20260831165904 15 299 0.0 0.0 0.00 0.00 0.00 34 1022.3
20260831165404 15 299 0.0 0.0 0.00 0.00 0.00 34 1022.3
20260831164903 15 299 0.0 0.0 0.00 0.00 0.00 34 1022.4
20260831164404 14 299 0.0 0.0 0.00 0.00 0.00 36 1022.5
20260831163904 13 299 0.0 0.0 0.00 0.00 0.00 39 1022.6
20260831162904 13 349 0.0 0.0 0.00 0.00 0.00 42 1022.7
20260831162404 12 349 0.0 0.0 0.00 0.00 0.00 41 1022.8
20260831161904 12 350 0.0 0.0 0.00 0.00 0.00 43 1022.7
20260831161404 12 5 0.0 0.0 0.00 0.00 0.00 45 1022.7
20260831160904 11 5 0.0 0.0 0.00 0.00 0.00 45 1022.8
20260831160404 11 358 0.0 0.0 0.00 0.00 0.00 46 1022.9
20260831155404 10 264 0.0 0.0 0.00 0.00 0.00 49 1022.9
20260831153904 8 192 0.0 0.0 0.00 0.00 0.00 55 1022.9
20260831153404 7 207 0.0 0.0 0.00 0.00 0.00 60 1022.9
20260831152904 7 207 0.0 0.0 0.00 0.00 0.00 64 1023.0
20260831152404 6 207 0.0 0.0 0.00 0.00 0.00 64 1023.0
20260831151904 6 207 0.0 0.0 0.00 0.00 0.00 67 1023.0
20260831151404 5 207 0.0 0.0 0.00 0.00 0.00 71 1023.1
20260831150904 5 207 0.0 0.0 0.00 0.00 0.00 71 1023.1
20260831150404 4 207 0.0 0.0 0.00 0.00 0.00 73 1023.2
20260831145904 3 207 0.0 0.0 0.00 0.00 0.00 74 1023.2
20260831145404 3 207 0.0 0.0 0.00 0.00 0.00 74 1023.2
20260831144404 2 207 0.0 0.0 0.00 0.00 0.00 75 1023.1
20260831143904 2 207 0.0 0.0 0.00 0.00 0.00 75 1023.2
20260831143404 2 207 0.0 0.0 0.00 0.00 0.00 75 1023.3
20260831142904 1 207 0.0 0.0 0.00 0.00 0.00 75 1023.3
20260831142404 1 207 0.0 0.0 0.00 0.00 0.00 75 1023.3
20260831141404 1 207 0.0 0.0 0.00 0.00 0.00 75 1023.2
20260831140904 1 207 0.0 0.0 0.00 0.00 0.00 75 1023.2
20260831140404 0 207 0.0 0.0 0.00 0.00 0.00 74 1023.2
20260831135904 0 207 0.0 0.0 0.00 0.00 0.00 74 1023.2
20260831135404 0 207 0.0 0.0 0.00 0.00 0.00 74 1023.2
20260831134904 0 207 0.0 0.0 0.00 0.00 0.00 74 1023.2
20260831133904 0 207 0.0 0.0 0.00 0.00 0.00 73 1023.1
20260831133404 0 207 0.0 0.0 0.00 0.00 0.00 73 1023.0
20260831132904 0 208 0.0 0.0 0.00 0.00 0.00 73 1022.9
20260831132404 0 233 0.0 0.0 0.00 0.00 0.00 73 1022.9
20260831131904 0 233 0.0 0.0 0.00 0.00 0.00 72 1022.9
20260831131404 0 233 0.0 0.0 0.00 0.00 0.00 72 1022.8
20260831130904 0 233 0.0 0.0 0.00 0.00 0.00 72 1022.8
20260831130404 0 233 0.0 0.0 0.00 0.00 0.00 72 1022.8
20260831125904 0 233 0.0 0.0 0.00 0.00 0.00 72 1022.7
20260831125404 0 233 0.0 0.0 0.00 0.00 0.00 72 1022.6
20260831124904 0 233 0.0 0.0 0.00 0.00 0.00 72 1022.6
20260831124404 0 233 0.0 0.0 0.00 0.00 0.00 72 1022.6
20260831123904 0 233 0.0 0.0 0.00 0.00 0.00 71 1022.6
20260831123404 0 233 0.0 0.0 0.00 0.00 0.00 71 1022.6
20260831122404 0 233 0.0 0.0 0.00 0.00 0.00 71 1022.5
20260831121904 0 233 0.0 0.0 0.00 0.00 0.00 71 1022.5
20260831121405 0 233 0.0 0.0 0.00 0.00 0.00 71 1022.5
20260831120904 0 233 0.0 0.0 0.00 0.00 0.00 71 1022.4
20260831120404 0 233 0.0 0.0 0.00 0.00 0.00 71 1022.4
20260831115904 0 233 0.0 0.0 0.00 0.00 0.00 71 1022.4
20260831115404 0 233 0.0 0.0 0.00 0.00 0.00 71 1022.4
20260831114904 0 233 0.0 0.0 0.00 0.00 0.00 70 1022.4
20260831114404 0 233 0.0 0.0 0.00 0.00 0.00 70 1022.4
20260831113904 1 233 0.0 0.0 0.00 0.00 0.00 70 1022.3
20260831112904 1 233 0.0 0.0 0.00 0.00 0.00 70 1022.3
20260831112404 1 233 0.0 0.0 0.00 0.00 0.00 70 1022.2
20260831111904 1 233 0.0 0.0 0.00 0.00 0.00 70 1022.2
20260831111404 1 233 0.0 0.0 0.00 0.00 0.00 70 1022.1
20260831110904 1 233 0.0 0.0 0.00 0.00 0.00 70 1022.1
20260831110404 1 233 0.0 0.0 0.00 0.00 0.00 69 1022.1
20260831105904 1 233 0.0 0.0 0.00 0.00 0.00 69 1022.1
20260831105404 1 233 0.0 0.0 0.00 0.00 0.00 69 1022.0
20260831104904 1 233 0.0 0.0 0.00 0.00 0.00 69 1022.0
20260831102904 1 233 0.0 0.0 0.00 0.00 0.00 69 1022.0
20260831102404 1 233 0.0 0.0 0.00 0.00 0.00 69 1022.0
20260831101905 1 233 0.0 0.0 0.00 0.00 0.00 68 1022.0
20260831101404 1 233 0.0 0.0 0.00 0.00 0.00 68 1022.0
20260831100904 1 233 0.0 0.0 0.00 0.00 0.00 68 1022.0
20260831100404 1 233 0.0 0.0 0.00 0.00 0.00 68 1021.9
20260831095904 1 233 0.0 0.0 0.00 0.00 0.00 68 1022.0
20260831095404 1 233 0.0 0.0 0.00 0.00 0.00 68 1021.9
20260831094404 1 233 0.0 0.0 0.00 0.00 0.00 68 1021.9
20260831093904 1 233 0.0 0.0 0.00 0.00 0.00 68 1021.9
20260831093406 1 233 0.0 0.0 0.00 0.00 0.00 68 1021.9
20260831092404 2 233 0.0 0.0 0.00 0.00 0.00 67 1021.9
20260831091404 2 233 0.0 0.0 0.00 0.00 0.00 67 1021.8
20260831090904 2 233 0.0 0.0 0.00 0.00 0.00 67 1021.8
20260831090404 2 233 0.0 0.0 0.00 0.00 0.00 67 1022.0
20260831085404 2 233 0.0 0.0 0.00 0.00 0.00 67 1021.9
20260831084904 2 233 0.0 0.0 0.00 0.00 0.00 67 1021.9
20260831084404 2 233 0.0 0.0 0.00 0.00 0.00 67 1021.9
20260831083404 2 233 0.0 0.0 0.00 0.00 0.00 66 1021.9
20260831082904 2 233 0.0 0.0 0.00 0.00 0.00 66 1021.9
20260831082404 2 233 0.0 0.0 0.00 0.00 0.00 66 1021.9
20260831081904 2 233 0.0 0.0 0.00 0.00 0.00 66 1021.8
20260831080904 3 233 0.0 0.0 0.00 0.00 0.00 65 1021.9
20260831080404 3 233 0.0 0.0 0.00 0.00 0.00 65 1021.8
20260831075404 3 233 0.0 0.0 0.00 0.00 0.00 65 1021.8
20260831074904 3 233 0.0 0.0 0.00 0.00 0.00 65 1021.8
20260831074404 3 233 0.0 0.0 0.00 0.00 0.00 64 1021.8
20260831073904 3 233 0.0 0.0 0.00 0.00 0.00 64 1021.9
20260831073404 3 233 0.0 0.0 0.00 0.00 0.00 64 1021.9
20260831072904 3 233 0.0 0.0 0.00 0.00 0.00 64 1021.8
20260831071404 3 233 0.0 0.0 0.00 0.00 0.00 62 1021.8
20260831070404 4 233 0.0 0.0 0.00 0.00 0.00 62 1021.6
20260831065904 4 233 0.0 0.0 0.00 0.00 0.00 62 1021.6
20260831064904 4 233 0.0 0.0 0.00 0.00 0.00 61 1021.5
20260831063904 5 233 0.0 0.0 0.00 0.00 0.00 61 1021.5
20260831063404 5 233 0.0 0.0 0.00 0.00 0.00 61 1021.4
20260831062904 5 233 0.0 0.0 0.00 0.00 0.00 61 1021.4
20260831061904 5 233 0.0 0.0 0.00 0.00 0.00 60 1021.3
20260831061404 5 233 0.0 0.0 0.00 0.00 0.00 60 1021.3
20260831060904 5 233 0.0 0.0 0.00 0.00 0.00 60 1021.3
20260831060404 5 233 0.0 0.0 0.00 0.00 0.00 59 1021.3
20260831055904 5 233 0.0 0.0 0.00 0.00 0.00 59 1021.3
20260831054904 5 233 0.0 0.0 0.00 0.00 0.00 59 1021.2
20260831054404 5 233 0.0 0.0 0.00 0.00 0.00 58 1021.2
20260831053404 6 233 0.0 0.0 0.00 0.00 0.00 58 1021.1
20260831052904 6 233 0.0 0.0 0.00 0.00 0.00 58 1021.1
20260831052404 6 233 0.0 0.0 0.00 0.00 0.00 58 1021.2
20260831051904 6 233 0.0 0.0 0.00 0.00 0.00 58 1021.0
20260831050904 6 233 0.0 0.0 0.00 0.00 0.00 57 1021.1
20260831050404 6 233 0.0 0.0 0.00 0.00 0.00 57 1021.0
20260831045904 7 233 0.0 0.0 0.00 0.00 0.00 57 1020.9
20260831045404 7 233 0.0 0.0 0.00 0.00 0.00 56 1020.9
20260831044904 7 233 0.0 0.0 0.00 0.00 0.00 56 1020.9
20260831044404 7 233 0.0 0.0 0.00 0.00 0.00 55 1020.9
20260831043904 7 233 0.0 0.0 0.00 0.00 0.00 53 1020.8
20260831042405 7 234 0.0 0.0 0.00 0.00 0.00 54 1020.7
20260831041904 7 234 0.0 0.0 0.00 0.00 0.00 54 1020.7
20260831041404 8 234 0.0 0.0 0.00 0.00 0.00 53 1020.7
20260831040906 8 234 0.0 0.0 0.00 0.00 0.00 53 1020.6
20260831040404 8 234 0.0 0.0 0.00 0.00 0.00 53 1020.5
20260831035904 8 234 0.0 0.0 0.00 0.00 0.00 52 1020.4
20260831035404 8 234 0.0 0.0 0.00 0.00 0.00 51 1020.4
20260831034404 9 234 0.0 0.0 0.00 0.00 0.00 49 1020.4
20260831033904 9 234 0.0 0.0 0.00 0.00 0.00 49 1020.3
20260831033404 10 234 0.0 0.0 0.00 0.00 0.00 48 1020.3
20260831032904 10 234 0.0 0.0 0.00 0.00 0.00 47 1020.3
20260831032404 10 234 0.0 0.0 0.00 0.00 0.00 48 1020.1
20260831031904 10 234 0.0 0.0 0.00 0.00 0.00 47 1020.0
20260831031404 11 234 0.0 0.0 0.00 0.03 0.00 47 1020.0
20260831030904 11 234 0.0 0.0 0.00 0.03 0.00 45 1020.0
20260831030404 11 234 0.0 0.0 0.00 0.03 0.00 44 1019.9
20260831025904 11 234 0.0 0.0 0.00 0.03 0.00 44 1019.8
20260831024904 12 234 0.0 0.0 0.00 0.03 0.00 42 1019.7
20260831024404 13 234 0.0 0.0 0.00 0.03 0.00 39 1019.7
20260831023904 13 234 0.0 0.0 0.00 0.03 0.00 40 1019.6
20260831023404 13 234 0.0 0.0 0.00 0.03 0.00 37 1019.5
20260831022904 14 234 0.0 0.0 0.00 0.03 0.00 36 1019.5
20260831021904 15 234 0.0 0.0 0.00 0.03 0.00 31 1019.3
20260831021404 15 234 0.0 0.0 0.00 0.03 0.00 33 1019.1
20260831020904 16 234 0.0 0.0 0.00 0.03 0.00 30 1019.0
20260831020404 16 234 0.0 0.0 0.00 0.03 0.00 29 1018.9
20260831015904 16 234 0.0 0.0 0.00 0.03 0.00 27 1018.9
20260831015404 17 234 0.0 0.0 0.00 0.03 0.00 24 1018.9
20260831014904 17 234 0.0 0.0 0.00 0.05 0.00 26 1018.8
20260831013404 18 234 0.0 0.0 0.00 0.05 0.00 17 1018.6
20260831012904 18 234 0.0 0.0 0.00 0.05 0.00 17 1018.7
20260831012404 18 234 0.0 4.8 0.00 0.05 0.00 15 1018.8
20260831011904 19 239 0.0 0.0 0.00 0.05 0.00 12 1018.8
20260831011404 19 239 0.0 0.0 0.00 0.05 0.00 12 1018.7
20260831010904 20 239 0.0 0.0 0.00 0.05 0.00 11 1018.7
20260831010404 20 238 0.0 0.0 0.00 0.05 0.00 10 1018.7
20260831005904 20 214 0.0 0.0 0.00 0.05 0.00 8 1018.7
20260831005404 20 213 3.2 9.7 0.00 0.05 0.00 10 1018.7
20260831004904 20 229 4.8 14.5 0.00 0.05 0.00 10 1018.6
20260831004404 20 224 4.8 19.3 0.00 0.05 0.00 9 1018.6
20260831003404 21 209 0.0 4.8 0.00 0.05 0.00 8 1018.5
20260831002904 21 223 0.0 19.3 0.00 0.05 0.00 8 1018.6
20260831002404 21 201 3.2 29.0 0.00 0.05 0.00 9 1018.5
20260831001404 21 221 0.0 3.2 0.00 0.05 0.00 8 1018.7
20260831000904 21 224 0.0 16.1 0.00 0.05 0.00 8 1018.8
20260831000404 22 208 1.6 16.1 0.00 0.05 0.00 8 1018.6
20260830235904 22 223 1.6 16.1 0.00 0.05 0.00 9 1018.7
20260830235404 22 226 0.0 12.9 0.00 0.05 0.00 10 1018.6
20260830234904 22 204 3.2 14.5 0.00 0.05 0.00 8 1018.6
20260830234404 22 239 1.6 12.9 0.00 0.05 0.00 9 1018.6
20260830233904 22 217 3.2 16.1 0.00 0.05 0.00 7 1018.6
20260830233404 22 222 1.6 8.0 0.00 0.05 0.00 8 1018.6
20260830232904 22 225 1.6 14.5 0.00 0.05 0.00 10 1018.5
20260830232404 22 212 0.0 3.2 0.00 0.05 0.00 9 1018.6
20260830231404 22 248 9.7 20.9 0.00 0.05 0.00 5 1018.6
20260830230904 22 223 1.6 12.9 0.00 0.05 0.00 8 1018.6
20260830230403 22 250 3.2 19.3 0.00 0.05 0.00 6 1018.7
20260830225904 22 80 1.6 3.2 0.00 0.05 0.00 4 1018.7
20260830225404 22 198 1.6 19.3 0.00 0.05 0.00 8 1018.8
20260830224904 22 219 8.0 19.3 0.00 0.05 0.00 7 1018.7
20260830224404 22 238 0.0 19.3 0.00 0.05 0.00 8 1018.7
20260830223904 22 208 3.2 16.1 0.00 0.05 0.00 7 1018.7
20260830223404 21 210 8.0 22.5 0.00 0.05 0.00 7 1018.7
20260830222904 21 201 6.4 20.9 0.00 0.05 0.00 8 1018.7
20260830222404 21 205 3.2 19.3 0.00 0.05 0.00 9 1018.7
20260830221904 21 203 8.0 22.5 0.00 0.05 0.00 10 1018.8
20260830221404 21 202 8.0 20.9 0.00 0.05 0.00 10 1018.8
20260830220404 21 221 11.3 24.1 0.00 0.05 0.00 8 1019.0
20260830215904 21 206 9.7 25.7 0.00 0.05 0.00 9 1019.0
20260830215404 21 210 3.2 16.1 0.00 0.05 0.00 12 1019.0